Date String (YYYY-MM-DD hh:mm:ss) UTC,Instrument flags,absolute air pressure of the measurement (hPa),sample flow rate (lpm),inlet stack bypass flow (lpm),air temperature of the measurement (°C),ambient temperature measured by the external sensor (°C),aerosol sample conditioner tube jacket temperature (°C),OPC LED temperature (°C),internal box temperature (°C),relative humidity of the measurement (%),span deviation,mass concentration of particles derived from Lorenz-Mie calculation of OPC scattering (μg/m³),mass concentration of particles derived from Lorenz-Mie calculation of OPC scattering (μg/m³),mass concentration of particles derived from Lorenz-Mie calculation of OPC scattering (μg/m³)
DateTimeUTC,F1_M11,P_M11,Q1_M11,Q2_M11,T1_M11,T2_M11,T3_M11,T4_M11,T5_M11,U1_M11,ZSPAN_M11,X0_M11,X2_M11,X1_M11
2024-05-29 18:00:00,SystemResetWarning,0828.6,5.00,000.00,030.0,029.3,000.0,038.3,031.8,020.0,0000.0,0018.49,0005.06,0003.77
2024-05-29 18:01:00,SystemResetWarning,0828.6,4.99,000.00,030.1,029.4,000.0,038.4,031.9,019.5,0000.0,0018.72,0005.01,0003.77
2024-05-29 18:02:00,SystemResetWarning,0828.6,5.00,000.00,030.1,029.5,000.0,038.4,031.9,018.9,0000.0,0018.04,0005.00,0003.76
2024-05-29 18:03:00,SystemResetWarning,0828.6,4.99,000.00,030.2,029.6,000.0,038.4,032.0,019.1,0000.0,0017.20,0004.97,0003.73
2024-05-29 18:04:00,SystemResetWarning,0828.6,5.00,000.00,030.2,029.7,000.0,038.4,032.0,018.8,0000.0,0016.98,0004.95,0003.72
2024-05-29 18:05:00,SystemResetWarning,0828.6,5.00,000.00,030.3,029.7,000.0,038.4,032.0,018.8,0000.0,0016.75,0004.98,0003.71
2024-05-29 18:06:00,SystemResetWarning,0828.6,5.00,000.00,030.3,029.8,000.0,038.5,032.1,019.1,0000.0,0016.03,0004.96,0003.70
2024-05-29 18:07:00,SystemResetWarning,0828.6,5.00,000.00,030.3,029.4,000.0,038.5,031.8,019.4,0000.0,0015.64,0004.92,0003.68
2024-05-29 18:08:00,SystemResetWarning,0828.5,5.00,000.00,030.0,027.1,000.0,038.6,030.7,018.8,0000.0,0015.12,0004.86,0003.66
2024-05-29 18:09:00,SystemResetWarning,0828.4,5.01,000.00,029.6,025.9,000.0,038.6,030.1,019.8,0000.0,0016.25,0004.88,0003.64
2024-05-29 18:10:00,SystemResetWarning,0828.4,5.01,000.00,029.4,026.4,000.0,038.4,030.2,019.4,0000.0,0016.05,0004.85,0003.64
2024-05-29 18:11:00,SystemResetWarning,0828.4,4.99,000.00,029.4,026.9,000.0,038.3,030.5,019.3,0000.0,0014.27,0004.79,0003.64
2024-05-29 18:12:00,SystemResetWarning,0828.4,5.01,000.00,029.4,027.3,000.0,038.2,030.7,019.7,0000.0,0013.86,0004.76,0003.62
2024-05-29 18:13:00,SystemResetWarning,0828.4,4.99,000.00,029.4,027.7,000.0,038.1,030.9,020.9,0000.0,0014.84,0004.76,0003.61
2024-05-29 18:14:00,SystemResetWarning,0828.4,5.00,000.00,029.5,028.0,000.0,038.1,031.0,020.4,0000.0,0015.24,0004.78,0003.62
2024-05-29 18:15:00,SystemResetWarning,0828.4,4.99,000.00,029.5,028.3,000.0,038.0,031.2,019.7,0000.0,0015.21,0004.77,0003.62
2024-05-29 18:16:00,SystemResetWarning,0828.4,5.00,000.00,029.6,028.5,000.0,038.0,031.3,019.5,0000.0,0016.33,0004.73,0003.61
2024-05-29 18:17:00,SystemResetWarning,0828.4,5.01,000.00,029.6,028.7,000.0,038.0,031.3,019.9,0000.0,0016.20,0004.69,0003.59
2024-05-29 18:18:00,SystemResetWarning,0828.4,5.00,000.00,029.7,028.9,000.0,038.0,031.4,020.1,0000.0,0016.17,0004.63,0003.59
2024-05-29 18:19:00,SystemResetWarning,0828.4,5.00,000.00,029.7,029.1,000.0,038.0,031.5,019.6,0000.0,0016.07,0004.60,0003.57
2024-05-29 18:20:00,SystemResetWarning,0828.4,5.00,000.00,029.8,029.2,000.0,038.1,031.5,019.9,0000.0,0015.83,0004.53,0003.56
2024-05-29 18:21:00,SystemResetWarning,0828.4,5.00,000.00,029.9,029.3,000.0,038.1,031.6,020.3,0000.0,0016.15,0004.53,0003.56
2024-05-29 18:22:00,SystemResetWarning,0828.4,5.00,000.00,029.9,029.4,000.0,038.1,031.7,019.9,0000.0,0016.76,0004.56,0003.56
2024-05-29 18:23:00,SystemResetWarning,0828.4,5.00,000.00,030.0,029.5,000.0,038.1,031.7,019.4,0000.0,0017.04,0004.56,0003.57
2024-05-29 18:24:00,SystemResetWarning,0828.4,5.00,000.00,030.0,029.5,000.0,038.2,031.8,019.7,0000.0,0016.88,0004.59,0003.58
2024-05-29 18:25:00,SystemResetWarning,0828.4,5.00,000.00,030.1,029.6,000.0,038.2,031.9,019.1,0000.0,0016.80,0004.58,0003.58
2024-05-29 18:26:00,SystemResetWarning,0828.4,5.00,000.00,030.1,029.7,000.0,038.2,031.9,019.7,0000.0,0016.81,0004.56,0003.59
2024-05-29 18:27:00,SystemResetWarning,0828.4,5.00,000.00,030.2,029.6,000.0,038.3,031.9,020.1,0000.0,0015.46,0004.61,0003.61
2024-05-29 18:28:00,SystemResetWarning,0828.4,4.99,000.00,030.0,027.7,000.0,038.4,030.9,020.3,0000.0,0015.81,0004.68,0003.64
2024-05-29 18:29:00,SystemResetWarning,0828.4,5.01,000.00,029.5,025.9,000.0,038.3,030.1,021.0,0000.0,0015.72,0004.72,0003.65
2024-05-29 18:30:00,SystemResetWarning,0828.3,5.01,000.00,029.3,026.3,000.0,038.3,030.1,021.2,0000.0,0016.09,0004.80,0003.68
2024-05-29 18:31:00,SystemResetWarning,0828.4,4.99,000.00,029.3,026.8,000.0,038.1,030.4,021.3,0000.0,0016.50,0004.86,0003.71
2024-05-29 18:32:00,SystemResetWarning,0828.4,5.00,000.00,029.3,027.2,000.0,038.0,030.6,021.4,0000.0,0016.58,0004.88,0003.73
2024-05-29 18:33:00,SystemResetWarning,0828.4,5.00,000.00,029.3,027.6,000.0,038.0,030.8,021.7,0000.0,0016.61,0004.90,0003.75
2024-05-29 18:34:00,SystemResetWarning,0828.4,5.00,000.00,029.4,027.9,000.0,037.9,030.9,022.1,0000.0,0016.20,0004.93,0003.77
2024-05-29 18:35:00,SystemResetWarning,0828.4,5.00,000.00,029.4,028.2,000.0,037.9,031.1,021.4,0000.0,0015.56,0004.94,0003.80
2024-05-29 18:36:00,SystemResetWarning,0828.4,5.00,000.00,029.5,028.5,000.0,037.9,031.2,020.7,0000.0,0015.02,0004.94,0003.82
2024-05-29 18:37:00,SystemResetWarning,0828.4,5.00,000.00,029.6,028.7,000.0,037.9,031.3,020.7,0000.0,0016.10,0005.00,0003.83
2024-05-29 18:38:00,SystemResetWarning,0828.4,5.00,000.00,029.6,028.8,000.0,037.9,031.4,020.5,0000.0,0017.23,0005.04,0003.83
2024-05-29 18:39:00,SystemResetWarning,0828.4,5.00,000.00,029.7,029.0,000.0,037.9,031.4,020.5,0000.0,0016.86,0004.98,0003.83
2024-05-29 18:40:00,SystemResetWarning,0828.4,5.01,000.00,029.7,029.1,000.0,037.9,031.5,020.9,0000.0,0017.25,0005.00,0003.83
2024-05-29 18:41:00,SystemResetWarning,0828.4,5.00,000.00,029.8,029.2,000.0,038.0,031.6,020.9,0000.0,0017.48,0004.95,0003.83
2024-05-29 18:42:00,SystemResetWarning,0828.4,4.99,000.00,029.9,029.3,000.0,038.0,031.7,020.6,0000.0,0016.88,0004.97,0003.82
2024-05-29 18:43:00,SystemResetWarning,0828.4,4.99,000.00,029.9,029.4,000.0,038.0,031.7,021.0,0000.0,0016.59,0005.03,0003.82
2024-05-29 18:44:00,SystemResetWarning,0828.3,5.00,000.00,030.0,029.5,000.0,038.1,031.8,021.0,0000.0,0017.36,0005.07,0003.82
2024-05-29 18:45:00,SystemResetWarning,0828.3,5.00,000.00,030.0,029.6,000.0,038.1,031.8,020.5,0000.0,0018.50,0005.08,0003.82
2024-05-29 18:46:00,SystemResetWarning,0828.3,5.00,000.00,030.1,029.6,000.0,038.1,031.8,020.2,0000.0,0019.44,0005.05,0003.80
2024-05-29 18:47:00,SystemResetWarning,0828.2,4.99,000.00,030.0,028.0,000.0,038.2,031.0,020.3,0000.0,0020.17,0005.04,0003.81
2024-05-29 18:48:00,SystemResetWarning,0828.1,5.01,000.00,029.5,025.9,000.0,038.2,030.0,021.1,0000.0,0019.93,0005.05,0003.82
2024-05-29 18:49:00,SystemResetWarning,0828.1,5.02,000.00,029.2,026.0,000.0,038.2,029.9,021.0,0000.0,0019.81,0005.01,0003.83
2024-05-29 18:50:00,SystemResetWarning,0828.2,5.00,000.00,029.2,026.5,000.0,038.0,030.2,020.6,0000.0,0020.75,0005.04,0003.85
2024-05-29 18:51:00,SystemResetWarning,0828.2,5.00,000.00,029.2,026.9,000.0,037.9,030.4,020.2,0000.0,0020.29,0005.04,0003.87
2024-05-29 18:52:00,SystemResetWarning,0828.2,5.00,000.00,029.2,027.4,000.0,037.9,030.6,020.9,0000.0,0019.32,0005.06,0003.87
2024-05-29 18:53:00,SystemResetWarning,0828.2,5.00,000.00,029.3,027.8,000.0,037.8,030.8,021.2,0000.0,0019.18,0005.04,0003.86
2024-05-29 18:54:00,SystemResetWarning,0828.2,5.00,000.00,029.3,028.1,000.0,037.8,030.9,020.7,0000.0,0018.77,0005.03,0003.86
2024-05-29 18:55:00,SystemResetWarning,0828.2,5.00,000.00,029.4,028.3,000.0,037.8,031.1,020.5,0000.0,0017.67,0005.02,0003.86
2024-05-29 18:56:00,SystemResetWarning,0828.3,4.99,000.00,029.4,028.5,000.0,037.8,031.2,019.8,0000.0,0016.88,0005.00,0003.85
2024-05-29 18:57:00,SystemResetWarning,0828.3,5.00,000.00,029.5,028.7,000.0,037.8,031.2,019.4,0000.0,0015.91,0005.00,0003.85
2024-05-29 18:58:00,SystemResetWarning,0828.3,5.00,000.00,029.6,028.9,000.0,037.8,031.3,019.8,0000.0,0015.41,0005.01,0003.84
2024-05-29 18:59:00,SystemResetWarning,0828.3,5.00,000.00,029.6,029.0,000.0,037.8,031.4,019.5,0000.0,0016.57,0004.96,0003.83
